When you browse on this site, cookies collect data to enhance your experience and personalize the content and advertising you see.
Visit our Privacy Policy to learn more. By continuing to use the site, you agree to this use of cookies and data.
  • In Latvia
  • List of Countries
  • For 7 days
  • Water Temperature
  • Weather Map
  • Weather Widgets
  • user-avatar
    Login

    Hourly Weather Canillo

    Today, 25 January, Saturday

    Time Temperature Precipitation Wind Pressure Humidity
    00:00 -4°C° 0 mm 2 mps 616 mmHg 85%
    01:00 -4°C° 0 mm 2 mps 616 mmHg 86%
    02:00 -4°C° 0 mm 2 mps 616 mmHg 87%
    03:00 -4°C° 0 mm 2 mps 615 mmHg 88%
    04:00 -4°C° 0 mm 2 mps 615 mmHg 89%
    05:00 -4°C° 0 mm 2 mps 615 mmHg 90%
    06:00 -4°C° 0 mm 2 mps 615 mmHg 90%
    07:00 -3°C° 0 mm 2 mps 616 mmHg 89%
    08:00 -2°C° 0 mm 2 mps 617 mmHg 88%
    09:00 +1°C° 0 mm 1 mps 617 mmHg 87%
    10:00 +1°C° 0 mm 2 mps 617 mmHg 86%
    11:00 +1°C° 0 mm 2 mps 617 mmHg 86%
    12:00 +2°C° 0 mm 2 mps 617 mmHg 86%
    13:00 +2°C° 0.1 mm 2 mps 617 mmHg 88%
    14:00 +3°C° 0.1 mm 1 mps 616 mmHg 90%
    15:00 +2°C° 0.1 mm 1 mps 616 mmHg 92%
    16:00 +2°C° 0.1 mm 1 mps 615 mmHg 93%
    17:00 +1°C° 0.1 mm 1 mps 615 mmHg 94%
    18:00 +1°C° 0.1 mm 1 mps 615 mmHg 95%
    19:00 0°C° 0 mm 1 mps 615 mmHg 95%
    20:00 0°C° 0 mm 1 mps 615 mmHg 95%
    21:00 0°C° 0 mm 1 mps 615 mmHg 94%
    22:00 0°C° 0 mm 1 mps 615 mmHg 94%
    23:00 0°C° 0 mm 1 mps 615 mmHg 94%

    Tomorrow, 26 January, Sunday

    Time Temperature Precipitation Wind Pressure Humidity
    00:00 -1°C° 0 mm 1 mps 615 mmHg 94%
    01:00 -1°C° 0 mm 1 mps 615 mmHg 94%
    02:00 -1°C° 0 mm 1 mps 614 mmHg 93%
    03:00 -1°C° 0 mm 1 mps 614 mmHg 93%
    04:00 -1°C° 0 mm 1 mps 614 mmHg 92%
    05:00 -2°C° 0 mm 1 mps 614 mmHg 90%
    06:00 -2°C° 0 mm 1 mps 614 mmHg 89%
    07:00 -1°C° 0 mm 1 mps 615 mmHg 88%
    08:00 0°C° 0 mm 1 mps 616 mmHg 87%
    09:00 0°C° 0 mm 1 mps 616 mmHg 86%
    10:00 +1°C° 0 mm 1 mps 617 mmHg 86%
    11:00 +2°C° 0 mm 1 mps 617 mmHg 85%
    12:00 +3°C° 0 mm 1 mps 617 mmHg 84%
    13:00 +3°C° 0 mm 1 mps 617 mmHg 86%
    14:00 +3°C° 0 mm 1 mps 617 mmHg 87%
    15:00 +3°C° 0 mm 1 mps 617 mmHg 88%
    16:00 +1°C° 0 mm 1 mps 616 mmHg 90%
    17:00 0°C° 0 mm 1 mps 616 mmHg 92%
    18:00 -2°C° 0 mm 0 mps 616 mmHg 94%
    19:00 -2°C° 0 mm 1 mps 616 mmHg 92%
    20:00 -2°C° 0 mm 1 mps 616 mmHg 90%
    21:00 -2°C° 0 mm 1 mps 616 mmHg 88%
    22:00 -2°C° 0 mm 1 mps 616 mmHg 87%
    23:00 -2°C° 0 mm 1 mps 616 mmHg 87%

    Day after tomorrow, 27 January, Monday

    Time Temperature Precipitation Wind Pressure Humidity
    00:00 -3°C° 0 mm 1 mps 616 mmHg 87%
    01:00 -3°C° 0 mm 1 mps 616 mmHg 84%
    02:00 -3°C° 0 mm 1 mps 615 mmHg 81%
    03:00 -3°C° 0 mm 1 mps 615 mmHg 78%
    04:00 -3°C° 0 mm 1 mps 615 mmHg 75%
    05:00 -2°C° 0 mm 1 mps 615 mmHg 71%
    06:00 -2°C° 0 mm 1 mps 615 mmHg 68%
    07:00 -1°C° 0 mm 1 mps 616 mmHg 67%
    08:00 0°C° 0 mm 1 mps 616 mmHg 65%
    09:00 +1°C° 0 mm 1 mps 617 mmHg 64%
    10:00 +2°C° 0 mm 1 mps 617 mmHg 66%
    11:00 +3°C° 0 mm 1 mps 617 mmHg 69%
    12:00 +3°C° 0 mm 1 mps 617 mmHg 71%
    13:00 +3°C° 0 mm 1 mps 616 mmHg 75%
    14:00 +3°C° 0 mm 1 mps 616 mmHg 80%
    15:00 +3°C° 0 mm 1 mps 615 mmHg 84%
    16:00 +1°C° 0 mm 2 mps 614 mmHg 87%
    17:00 -1°C° 0 mm 2 mps 614 mmHg 90%
    18:00 -2°C° 0 mm 2 mps 614 mmHg 92%
    19:00 -2°C° 0.1 mm 2 mps 614 mmHg 92%
    20:00 -1°C° 0.1 mm 2 mps 614 mmHg 93%
    21:00 -1°C° 0.1 mm 2 mps 613 mmHg 93%
    22:00 -1°C° 0.1 mm 2 mps 613 mmHg 93%
    23:00 -1°C° 0.1 mm 2 mps 613 mmHg 94%

    28 January, Tuesday

    Time Temperature Precipitation Wind Pressure Humidity
    00:00 -1°C° 0.1 mm 2 mps 613 mmHg 94%
    01:00 -1°C° 0 mm 2 mps 613 mmHg 94%
    02:00 +1°C° 0 mm 1 mps 613 mmHg 94%
    03:00 +1°C° 0 mm 1 mps 613 mmHg 94%
    04:00 0°C° 0 mm 1 mps 613 mmHg 94%
    05:00 0°C° 0 mm 1 mps 613 mmHg 94%
    06:00 0°C° 0 mm 1 mps 613 mmHg 94%
    07:00 0°C° 0.1 mm 1 mps 614 mmHg 94%
    08:00 +1°C° 0.1 mm 1 mps 614 mmHg 93%
    09:00 +1°C° 0.1 mm 1 mps 615 mmHg 93%
    10:00 +2°C° 0.1 mm 1 mps 615 mmHg 92%
    11:00 +2°C° 0.1 mm 1 mps 615 mmHg 91%
    12:00 +2°C° 0.1 mm 1 mps 616 mmHg 90%
    13:00 +3°C° 0 mm 1 mps 616 mmHg 90%
    14:00 +3°C° 0 mm 1 mps 615 mmHg 89%
    15:00 +3°C° 0 mm 1 mps 615 mmHg 89%
    16:00 +1°C° 0 mm 1 mps 615 mmHg 91%
    17:00 0°C° 0 mm 1 mps 615 mmHg 92%
    18:00 -1°C° 0 mm 1 mps 615 mmHg 94%
    19:00 -1°C° 0 mm 1 mps 615 mmHg 93%
    20:00 -2°C° 0 mm 1 mps 615 mmHg 92%
    21:00 -2°C° 0 mm 1 mps 615 mmHg 91%
    22:00 -2°C° 0 mm 1 mps 615 mmHg 90%
    23:00 -2°C° 0 mm 1 mps 615 mmHg 88%

    29 January, Wednesday

    Time Temperature Precipitation Wind Pressure Humidity
    00:00 -2°C° 0 mm 1 mps 615 mmHg 87%
    01:00 -2°C° 0 mm 1 mps 615 mmHg 85%
    02:00 -2°C° 0 mm 1 mps 615 mmHg 83%
    03:00 -2°C° 0 mm 1 mps 615 mmHg 80%
    04:00 -3°C° 0 mm 1 mps 615 mmHg 78%
    05:00 -3°C° 0 mm 1 mps 615 mmHg 76%
    06:00 -3°C° 0 mm 1 mps 614 mmHg 73%
    07:00 -2°C° 0 mm 1 mps 615 mmHg 71%
    08:00 -1°C° 0 mm 1 mps 616 mmHg 70%
    09:00 0°C° 0 mm 0 mps 617 mmHg 68%
    10:00 +2°C° 0 mm 1 mps 617 mmHg 69%
    11:00 +3°C° 0 mm 1 mps 617 mmHg 69%
    12:00 +4°C° 0 mm 1 mps 618 mmHg 70%
    13:00 +4°C° 0 mm 1 mps 618 mmHg 73%
    14:00 +4°C° 0 mm 1 mps 617 mmHg 75%
    15:00 +3°C° 0 mm 0 mps 617 mmHg 77%
    16:00 +2°C° 0 mm 1 mps 617 mmHg 78%
    17:00 +1°C° 0 mm 1 mps 616 mmHg 80%
    18:00 -1°C° 0 mm 1 mps 616 mmHg 81%
    19:00 -1°C° 0 mm 1 mps 616 mmHg 76%
    20:00 -1°C° 0 mm 1 mps 616 mmHg 71%
    21:00 -1°C° 0 mm 1 mps 616 mmHg 65%
    22:00 0°C° 0 mm 1 mps 616 mmHg 67%
    23:00 0°C° 0 mm 1 mps 616 mmHg 68%

    30 January, Thursday

    Time Temperature Precipitation Wind Pressure Humidity
    00:00 0°C° 0 mm 1 mps 617 mmHg 70%
    01:00 0°C° 0 mm 1 mps 616 mmHg 69%
    02:00 +1°C° 0 mm 1 mps 616 mmHg 68%
    03:00 +1°C° 0 mm 1 mps 616 mmHg 67%
    04:00 +1°C° 0 mm 1 mps 616 mmHg 69%
    05:00 +1°C° 0 mm 1 mps 616 mmHg 71%
    06:00 +1°C° 0 mm 1 mps 615 mmHg 74%
    07:00 +2°C° 0 mm 1 mps 616 mmHg 77%
    08:00 +2°C° 0 mm 1 mps 616 mmHg 81%
    09:00 +3°C° 0 mm 1 mps 617 mmHg 84%
    10:00 +4°C° 0 mm 1 mps 617 mmHg 84%
    11:00 +5°C° 0 mm 1 mps 617 mmHg 83%
    12:00 +6°C° 0 mm 1 mps 618 mmHg 82%
    13:00 +6°C° 0 mm 1 mps 618 mmHg 83%
    14:00 +6°C° 0 mm 1 mps 617 mmHg 84%
    15:00 +6°C° 0 mm 1 mps 617 mmHg 85%
    16:00 +5°C° 0 mm 1 mps 617 mmHg 87%
    17:00 +4°C° 0 mm 1 mps 617 mmHg 89%
    18:00 +3°C° 0 mm 1 mps 616 mmHg 91%
    19:00 +3°C° 0 mm 1 mps 617 mmHg 90%
    20:00 +3°C° 0 mm 1 mps 617 mmHg 89%
    21:00 +3°C° 0 mm 1 mps 617 mmHg 88%
    22:00 +3°C° 0 mm 1 mps 617 mmHg 88%
    23:00 +3°C° 0 mm 1 mps 617 mmHg 88%
    Show more